Terminal Aerodrome Forecast
Issued by NWS Boston, MA

Home | Current Version | Previous Version | Text Only | Print | Product List | Glossary On
Versions: 1 2 3 4 5 6 7 8 9 10 11 12 13 14 15 16 17 18 19 20 21 22 23 24 25 26 27 28 29 30 31 32 33 34 35 36 37 38 39 40 41 42 43 44 45 46 47 48 49 50
000
FTUS41 KBOX 280818 AAA
TAFBOS
TAF AMD
KBOS 280818Z 2808/2912 02015G25KT P6SM SCT020 OVC035
     FM281300 01016G25KT P6SM OVC035
     FM281800 35013KT P6SM SCT045
     FM282300 31013G21KT P6SM FEW060
     FM290800 30010KT P6SM BKN080=

USA.gov is the U.S. government's official web portal to all federal, state and local government web resources and services.